QPF
0.04 0.05 0.04 0.04 0.04 0.04 0.04 0.03 0.02 0.02 0.02 0.02 0.03 0.03 0.05 0.06 0.04 0.04 0.02 0.02 0.04 0.06 0.07 0.06 0.06 0.05 0.04 0.04 0.03 0.03 0.04 0.05 0.05 0.05 0.05 0.08 0.08 0.07 0.06 0.05 0.05 0.05 0.04
0.03 0.05 0.04 0.04 0.03 0.02 0.03 0.03 0.03 0.03 0.03 0.03 0.02 0.02 0.02 0.03 0.03 0.04 0.04 0.03 0.03 0.06 0.08 0.08 0.06 0.06 0.06 0.05 0.04 0.03 0.04 0.06 0.05 0.04 0.04 0.05 0.07 0.07 0.07 0.05 0.05 0.06 0.06
0.03 0.03 0.03 0.03 0.02 0.03 0.05 0.05 0.06 0.05 0.03 0.02 0.02 0.01 0.02 0.02 0.03 0.04 0.06 0.05 0.03 0.05 0.08 0.10 0.08 0.09 0.10 0.08 0.07 0.05 0.06 0.06 0.05 0.03 0.03 0.04 0.05 0.06 0.07 0.06 0.07 0.09 0.08
0.02 0.03 0.03 0.03 0.04 0.05 0.06 0.06 0.09 0.05 0.04 0.03 0.03 0.02 0.03 0.03 0.03 0.04 0.06 0.07 0.05 0.05 0.07 0.08 0.07 0.08 0.09 0.08 0.06 0.06 0.07 0.05 0.04 0.03 0.03 0.03 0.04 0.05 0.08 0.08 0.08 0.11 0.08
0.03 0.04 0.04 0.05 0.13 0.11 0.06 0.06 0.07 0.06 0.06 0.07 0.04 0.05 0.05 0.04 0.04 0.05 0.08 0.07 0.09 0.07 0.06 0.06 0.08 0.08 0.08 0.09 0.07 0.07 0.07 0.05 0.04 0.03 0.02 0.02 0.02 0.03 0.05 0.07 0.06 0.09 0.07
0.03 0.04 0.04 0.06 0.08 0.08 0.08 0.07 0.05 0.05 0.05 0.04 0.05 0.06 0.05 0.06 0.06 0.06 0.10 0.08 0.09 0.08 0.08 0.07 0.07 0.07 0.08 0.11 0.12 0.12 0.12 0.10 0.09 0.07 0.05 0.03 0.03 0.03 0.03 0.04 0.04 0.05 0.05
0.03 0.04 0.04 0.05 0.05 0.06 0.06 0.06 0.06 0.05 0.04 0.06 0.06 0.06 0.05 0.05 0.07 0.08 0.09 0.07 0.08 0.10 0.09 0.07 0.07 0.08 0.11 0.12 0.14 0.14 0.14 0.13 0.11 0.09 0.07 0.05 0.04 0.03 0.03 0.03 0.03 0.04 0.05
0.02 0.03 0.04 0.04 0.05 0.06 0.07 0.08 0.08 0.06 0.06 0.07 0.08 0.06 0.06 0.09 0.14 0.12 0.09 0.07 0.08 0.11 0.13 0.10 0.08 0.10 0.10 0.08 0.07 0.07 0.07 0.09 0.09 0.08 0.06 0.06 0.05 0.04 0.04 0.04 0.03 0.04 0.05
0.02 0.04 0.03 0.03 0.04 0.04 0.04 0.04 0.05 0.03 0.04 0.05 0.06 0.05 0.04 0.05 0.08 0.11 0.10 0.09 0.09 0.08 0.05 0.05 0.05 0.07 0.08 0.07 0.06 0.06 0.06 0.08 0.08 0.08 0.09 0.09 0.08 0.07 0.07 0.06 0.06 0.06 0.06
0.02 0.04 0.04 0.04 0.05 0.04 0.04 0.04 0.04 0.03 0.03 0.03 0.05 0.05 0.04 0.05 0.04 0.05 0.07 0.10 0.09 0.07 0.05 0.04 0.03 0.05 0.05 0.05 0.08 0.09 0.09 0.08 0.07 0.07 0.07 0.07 0.06 0.06 0.05 0.04 0.03 0.03 0.02
0.02 0.03 0.05 0.05 0.06 0.06 0.05 0.04 0.03 0.03 0.02 0.02 0.03 0.04 0.05 0.06 0.05 0.05 0.06 0.08 0.08 0.07 0.05 0.05 0.05 0.05 0.05 0.07 0.09 0.12 0.15 0.12 0.09 0.06 0.05 0.05 0.06 0.06 0.06 0.04 0.03 0.02 0.02
0.03 0.03 0.06 0.07 0.08 0.09 0.07 0.05 0.03 0.02 0.02 0.03 0.03 0.03 0.04 0.05 0.06 0.06 0.05 0.05 0.06 0.05 0.04 0.05 0.05 0.05 0.07 0.09 0.10 0.12 0.17 0.15 0.09 0.08 0.05 0.05 0.05 0.05 0.05 0.04 0.03 0.03 0.03
0.03 0.04 0.06 0.08 0.10 0.10 0.07 0.06 0.04 0.03 0.03 0.03 0.03 0.03 0.05 0.06 0.07 0.08 0.07 0.05 0.04 0.03 0.04 0.05 0.06 0.06 0.08 0.12 0.13 0.11 0.12 0.12 0.09 0.09 0.08 0.05 0.05 0.04 0.03 0.03 0.02 0.03 0.03
0.02 0.03 0.04 0.06 0.08 0.08 0.06 0.05 0.04 0.03 0.03 0.04 0.03 0.04 0.06 0.06 0.06 0.07 0.05 0.06 0.04 0.03 0.02 0.04 0.06 0.06 0.05 0.05 0.06 0.08 0.09 0.10 0.09 0.08 0.06 0.04 0.03 0.03 0.02 0.02 0.01 0.01 0.02
0.02 0.02 0.02 0.03 0.06 0.07 0.06 0.04 0.04 0.04 0.04 0.05 0.04 0.04 0.04 0.05 0.05 0.04 0.04 0.04 0.03 0.02 0.01 0.02 0.03 0.03 0.03 0.04 0.04 0.04 0.04 0.04 0.05 0.04 0.04 0.03 0.03 0.02 0.01 0.01 0.01 0.01 0.01
0.01 0.01 0.02 0.03 0.04 0.06 0.05 0.05 0.05 0.05 0.05 0.07 0.06 0.04 0.03 0.03 0.03 0.03 0.04 0.04 0.04 0.04 0.02 0.02 0.02 0.02 0.02 0.03 0.05 0.04 0.04 0.04 0.04 0.05 0.06 0.06 0.04 0.02 0.02 0.02 0.02 0.02 0.01
0.01 0.01 0.01 0.02 0.03 0.06 0.06 0.06 0.06 0.07 0.06 0.06 0.06 0.04 0.03 0.03 0.03 0.03 0.04 0.05 0.05 0.05 0.03 0.02 0.02 0.02 0.03 0.05 0.06 0.06 0.05 0.04 0.05 0.06 0.06 0.05 0.04 0.03 0.03 0.02 0.02 0.02 0.02
0.01 0.01 0.01 0.01 0.03 0.03 0.04 0.04 0.04 0.05 0.05 0.04 0.04 0.04 0.03 0.03 0.03 0.04 0.05 0.06 0.05 0.04 0.04 0.03 0.03 0.03 0.03 0.05 0.06 0.06 0.05 0.04 0.04 0.05 0.04 0.03 0.03 0.02 0.02 0.02 0.02 0.03 0.03
0.01 0.00 0.01 0.01 0.02 0.03 0.03 0.04 0.04 0.03 0.03 0.03 0.04 0.05 0.05 0.05 0.05 0.05 0.06 0.05 0.04 0.04 0.03 0.03 0.04 0.04 0.03 0.04 0.05 0.05 0.06 0.05 0.04 0.04 0.03 0.03 0.02 0.02 0.02 0.02 0.02 0.03 0.03
0.01 0.01 0.01 0.01 0.01 0.02 0.02 0.04 0.03 0.03 0.03 0.04 0.04 0.05 0.07 0.08 0.06 0.07 0.07 0.05 0.04 0.05 0.04 0.03 0.03 0.04 0.03 0.04 0.04 0.04 0.05 0.06 0.04 0.04 0.04 0.04 0.04 0.04 0.04 0.04 0.03 0.03 0.03
0.01 0.01 0.01 0.01 0.02 0.02 0.03 0.03 0.03 0.03 0.05 0.06 0.06 0.08 0.08 0.07 0.08 0.08 0.07 0.06 0.05 0.05 0.06 0.06 0.05 0.04 0.04 0.04 0.04 0.05 0.05 0.06 0.05 0.05 0.04 0.04 0.03 0.03 0.03 0.04 0.03 0.02 0.02
0.01 0.01 0.01 0.01 0.02 0.02 0.04 0.03 0.03 0.04 0.06 0.07 0.07 0.08 0.06 0.06 0.05 0.05 0.04 0.04 0.04 0.04 0.04 0.05 0.05 0.03 0.02 0.04 0.05 0.05 0.06 0.06 0.04 0.04 0.05 0.04 0.03 0.03 0.04 0.06 0.06 0.04 0.03
0.01 0.01 0.01 0.01 0.02 0.03 0.03 0.03 0.03 0.04 0.05 0.06 0.06 0.06 0.05 0.04 0.04 0.03 0.04 0.05 0.05 0.04 0.04 0.04 0.04 0.02 0.02 0.02 0.04 0.05 0.07 0.07 0.05 0.05 0.07 0.06 0.05 0.04 0.06 0.09 0.09 0.07 0.06
0.02 0.02 0.02 0.02 0.03 0.03 0.03 0.03 0.03 0.03 0.05 0.05 0.04 0.04 0.04 0.03 0.03 0.04 0.06 0.07 0.06 0.05 0.05 0.04 0.03 0.03 0.03 0.02 0.03 0.03 0.04 0.06 0.06 0.06 0.05 0.05 0.05 0.06 0.06 0.09 0.11 0.09 0.07
0.05 0.04 0.03 0.03 0.03 0.04 0.04 0.04 0.03 0.04 0.05 0.04 0.04 0.03 0.02 0.02 0.03 0.05 0.04 0.05 0.05 0.05 0.05 0.04 0.03 0.03 0.03 0.03 0.02 0.02 0.02 0.03 0.05 0.05 0.04 0.03 0.03 0.05 0.06 0.09 0.10 0.09 0.08
0.07 0.06 0.06 0.06 0.06 0.05 0.05 0.05 0.06 0.05 0.05 0.05 0.04 0.03 0.01 0.02 0.03 0.04 0.04 0.03 0.02 0.02 0.02 0.02 0.02 0.03 0.03 0.03 0.02 0.02 0.02 0.02 0.03 0.04 0.04 0.04 0.03 0.05 0.06 0.07 0.09 0.08 0.07
MSLP
1012.46 1012.44 1012.39 1012.33 1012.28 1012.27 1012.31 1012.38 1012.49 1012.60 1012.70 1012.78 1012.81 1012.82 1012.80 1012.77 1012.74 1012.74 1012.77 1012.84 1012.94 1013.06 1013.22 1013.38 1013.56 1013.75 1013.93 1014.12 1014.30 1014.49 1014.68 1014.87 1015.07 1015.28 1015.49 1015.70 1015.90 1016.08 1016.22 1016.32 1016.38 1016.40 1016.39
1012.12 1012.13 1012.11 1012.09 1012.09 1012.10 1012.15 1012.23 1012.33 1012.43 1012.53 1012.60 1012.63 1012.64 1012.61 1012.57 1012.52 1012.49 1012.48 1012.51 1012.58 1012.70 1012.87 1013.06 1013.27 1013.49 1013.71 1013.91 1014.09 1014.26 1014.42 1014.58 1014.75 1014.92 1015.12 1015.32 1015.52 1015.70 1015.86 1015.97 1016.03 1016.05 1016.03
1011.78 1011.81 1011.85 1011.88 1011.92 1011.97 1012.04 1012.12 1012.20 1012.29 1012.36 1012.41 1012.43 1012.43 1012.39 1012.33 1012.25 1012.19 1012.14 1012.14 1012.19 1012.30 1012.46 1012.68 1012.92 1013.18 1013.43 1013.66 1013.86 1014.02 1014.16 1014.29 1014.42 1014.57 1014.74 1014.93 1015.12 1015.31 1015.47 1015.60 1015.67 1015.70 1015.68
1011.44 1011.51 1011.59 1011.68 1011.78 1011.87 1011.96 1012.04 1012.10 1012.16 1012.20 1012.22 1012.23 1012.20 1012.15 1012.07 1011.97 1011.88 1011.80 1011.76 1011.78 1011.87 1012.03 1012.25 1012.52 1012.81 1013.09 1013.35 1013.56 1013.73 1013.86 1013.97 1014.08 1014.20 1014.34 1014.51 1014.69 1014.88 1015.05 1015.18 1015.27 1015.30 1015.30
1011.13 1011.22 1011.35 1011.50 1011.65 1011.78 1011.89 1011.97 1012.02 1012.04 1012.05 1012.05 1012.03 1011.98 1011.92 1011.83 1011.72 1011.60 1011.50 1011.43 1011.41 1011.47 1011.60 1011.81 1012.08 1012.38 1012.69 1012.96 1013.19 1013.37 1013.50 1013.61 1013.69 1013.79 1013.91 1014.06 1014.22 1014.39 1014.56 1014.69 1014.79 1014.83 1014.83
1010.85 1010.95 1011.11 1011.31 1011.50 1011.67 1011.80 1011.89 1011.92 1011.93 1011.92 1011.89 1011.86 1011.81 1011.75 1011.66 1011.55 1011.42 1011.29 1011.18 1011.12 1011.13 1011.22 1011.39 1011.63 1011.92 1012.22 1012.50 1012.74 1012.93 1013.07 1013.18 1013.26 1013.34 1013.44 1013.57 1013.71 1013.86 1014.01 1014.13 1014.22 1014.27 1014.28
1010.59 1010.69 1010.87 1011.10 1011.33 1011.53 1011.68 1011.77 1011.80 1011.80 1011.78 1011.75 1011.72 1011.70 1011.66 1011.59 1011.49 1011.37 1011.22 1011.07 1010.95 1010.89 1010.90 1011.00 1011.18 1011.42 1011.69 1011.96 1012.20 1012.40 1012.56 1012.67 1012.76 1012.85 1012.94 1013.05 1013.17 1013.29 1013.42 1013.52 1013.60 1013.64 1013.65
1010.35 1010.43 1010.61 1010.85 1011.10 1011.32 1011.49 1011.59 1011.63 1011.64 1011.62 1011.61 1011.61 1011.62 1011.63 1011.60 1011.54 1011.42 1011.26 1011.07 1010.89 1010.75 1010.66 1010.66 1010.74 1010.90 1011.11 1011.34 1011.57 1011.77 1011.95 1012.09 1012.20 1012.31 1012.40 1012.50 1012.61 1012.71 1012.81 1012.89 1012.94 1012.97 1012.97
1010.11 1010.16 1010.33 1010.56 1010.82 1011.05 1011.22 1011.33 1011.38 1011.40 1011.41 1011.43 1011.48 1011.55 1011.61 1011.65 1011.63 1011.54 1011.37 1011.15 1010.91 1010.66 1010.47 1010.34 1010.31 1010.36 1010.48 1010.66 1010.86 1011.06 1011.25 1011.43 1011.58 1011.72 1011.84 1011.95 1012.05 1012.14 1012.22 1012.27 1012.29 1012.29 1012.28
1009.84 1009.87 1010.01 1010.22 1010.47 1010.69 1010.86 1010.97 1011.03 1011.06 1011.10 1011.17 1011.27 1011.40 1011.53 1011.64 1011.68 1011.62 1011.47 1011.23 1010.92 1010.59 1010.28 1010.03 1009.87 1009.80 1009.83 1009.93 1010.09 1010.29 1010.50 1010.71 1010.90 1011.09 1011.25 1011.39 1011.50 1011.59 1011.65 1011.67 1011.67 1011.64 1011.60
1009.53 1009.53 1009.64 1009.83 1010.05 1010.25 1010.40 1010.50 1010.56 1010.60 1010.65 1010.75 1010.90 1011.10 1011.30 1011.48 1011.58 1011.58 1011.45 1011.20 1010.86 1010.47 1010.06 1009.70 1009.42 1009.24 1009.17 1009.20 1009.32 1009.50 1009.72 1009.96 1010.20 1010.43 1010.63 1010.81 1010.94 1011.03 1011.08 1011.09 1011.06 1011.01 1010.94
1009.14 1009.12 1009.22 1009.38 1009.56 1009.73 1009.86 1009.93 1009.96 1009.99 1010.05 1010.17 1010.35 1010.59 1010.85 1011.10 1011.27 1011.33 1011.24 1011.02 1010.68 1010.25 1009.79 1009.35 1008.98 1008.71 1008.56 1008.52 1008.59 1008.75 1008.97 1009.22 1009.49 1009.75 1009.99 1010.20 1010.36 1010.46 1010.50 1010.50 1010.45 1010.37 1010.27
1008.66 1008.65 1008.73 1008.87 1009.02 1009.15 1009.23 1009.26 1009.26 1009.25 1009.29 1009.40 1009.60 1009.86 1010.17 1010.48 1010.71 1010.84 1010.82 1010.65 1010.34 1009.93 1009.47 1009.00 1008.59 1008.26 1008.05 1007.96 1007.98 1008.10 1008.30 1008.55 1008.82 1009.09 1009.34 1009.56 1009.72 1009.83 1009.87 1009.85 1009.79 1009.69 1009.57
1008.10 1008.10 1008.19 1008.31 1008.43 1008.52 1008.55 1008.53 1008.47 1008.42 1008.41 1008.50 1008.68 1008.96 1009.29 1009.64 1009.94 1010.14 1010.21 1010.12 1009.88 1009.53 1009.11 1008.67 1008.26 1007.93 1007.69 1007.56 1007.54 1007.62 1007.77 1007.98 1008.22 1008.46 1008.69 1008.89 1009.03 1009.12 1009.15 1009.13 1009.05 1008.94 1008.81
1007.48 1007.51 1007.61 1007.72 1007.83 1007.88 1007.86 1007.77 1007.65 1007.54 1007.49 1007.53 1007.68 1007.94 1008.29 1008.67 1009.02 1009.30 1009.45 1009.46 1009.34 1009.09 1008.76 1008.40 1008.04 1007.73 1007.50 1007.36 1007.30 1007.33 1007.42 1007.56 1007.73 1007.90 1008.07 1008.20 1008.30 1008.35 1008.35 1008.31 1008.22 1008.11 1007.97
1006.84 1006.90 1007.02 1007.14 1007.23 1007.25 1007.19 1007.05 1006.87 1006.70 1006.59 1006.58 1006.69 1006.93 1007.27 1007.66 1008.05 1008.39 1008.63 1008.75 1008.75 1008.63 1008.43 1008.17 1007.91 1007.67 1007.47 1007.33 1007.25 1007.23 1007.24 1007.29 1007.36 1007.43 1007.49 1007.54 1007.56 1007.55 1007.51 1007.43 1007.34 1007.22 1007.10
1006.23 1006.32 1006.46 1006.59 1006.67 1006.67 1006.58 1006.41 1006.19 1005.97 1005.81 1005.75 1005.82 1006.02 1006.33 1006.72 1007.13 1007.51 1007.83 1008.04 1008.15 1008.16 1008.10 1007.97 1007.83 1007.68 1007.54 1007.42 1007.33 1007.26 1007.20 1007.15 1007.10 1007.05 1006.99 1006.92 1006.85 1006.76 1006.66 1006.56 1006.45 1006.35 1006.25
1005.70 1005.82 1005.97 1006.11 1006.19 1006.18 1006.07 1005.87 1005.63 1005.38 1005.19 1005.09 1005.12 1005.28 1005.55 1005.91 1006.32 1006.71 1007.07 1007.35 1007.55 1007.68 1007.73 1007.74 1007.71 1007.66 1007.60 1007.52 1007.43 1007.33 1007.21 1007.06 1006.90 1006.73 1006.55 1006.37 1006.20 1006.04 1005.90 1005.77 1005.65 1005.56 1005.49
1005.30 1005.42 1005.57 1005.71 1005.78 1005.77 1005.66 1005.46 1005.20 1004.95 1004.74 1004.62 1004.61 1004.73 1004.96 1005.28 1005.64 1006.02 1006.37 1006.68 1006.93 1007.13 1007.28 1007.39 1007.47 1007.51 1007.53 1007.50 1007.44 1007.32 1007.16 1006.95 1006.71 1006.44 1006.17 1005.90 1005.66 1005.44 1005.25 1005.11 1005.00 1004.93 1004.89
1005.03 1005.13 1005.27 1005.39 1005.46 1005.44 1005.33 1005.14 1004.90 1004.65 1004.44 1004.31 1004.28 1004.36 1004.54 1004.79 1005.09 1005.41 1005.73 1006.01 1006.27 1006.50 1006.70 1006.88 1007.03 1007.16 1007.24 1007.28 1007.24 1007.14 1006.97 1006.73 1006.44 1006.13 1005.80 1005.49 1005.20 1004.96 1004.76 1004.62 1004.53 1004.49 1004.48
1004.90 1004.96 1005.06 1005.15 1005.20 1005.17 1005.06 1004.88 1004.67 1004.44 1004.25 1004.12 1004.08 1004.12 1004.24 1004.43 1004.65 1004.88 1005.11 1005.34 1005.56 1005.77 1005.97 1006.18 1006.38 1006.55 1006.70 1006.78 1006.79 1006.73 1006.57 1006.35 1006.06 1005.74 1005.41 1005.10 1004.82 1004.59 1004.42 1004.30 1004.24 1004.23 1004.26
1004.88 1004.88 1004.93 1004.97 1004.98 1004.94 1004.82 1004.66 1004.47 1004.27 1004.11 1003.99 1003.94 1003.96 1004.03 1004.14 1004.26 1004.40 1004.54 1004.67 1004.81 1004.97 1005.14 1005.34 1005.54 1005.74 1005.91 1006.04 1006.09 1006.07 1005.96 1005.77 1005.52 1005.24 1004.96 1004.70 1004.47 1004.30 1004.18 1004.12 1004.11 1004.13 1004.19
1004.94 1004.88 1004.86 1004.84 1004.80 1004.72 1004.60 1004.44 1004.27 1004.10 1003.96 1003.87 1003.83 1003.82 1003.85 1003.89 1003.93 1003.97 1004.00 1004.04 1004.09 1004.16 1004.28 1004.43 1004.61 1004.80 1004.98 1005.13 1005.21 1005.22 1005.16 1005.03 1004.85 1004.64 1004.44 1004.26 1004.12 1004.03 1004.00 1004.01 1004.06 1004.13 1004.21
1005.07 1004.93 1004.84 1004.75 1004.64 1004.52 1004.37 1004.21 1004.05 1003.91 1003.80 1003.73 1003.70 1003.69 1003.69 1003.68 1003.66 1003.61 1003.55 1003.49 1003.45 1003.44 1003.48 1003.57 1003.70 1003.86 1004.02 1004.15 1004.25 1004.29 1004.26 1004.19 1004.08 1003.96 1003.85 1003.77 1003.75 1003.76 1003.83 1003.93 1004.04 1004.16 1004.27
1005.25 1005.04 1004.86 1004.69 1004.52 1004.34 1004.16 1003.98 1003.82 1003.70 1003.62 1003.57 1003.56 1003.55 1003.54 1003.50 1003.43 1003.33 1003.21 1003.07 1002.95 1002.87 1002.83 1002.85 1002.92 1003.02 1003.14 1003.25 1003.33 1003.37 1003.37 1003.33 1003.29 1003.24 1003.23 1003.26 1003.34 1003.47 1003.64 1003.83 1004.02 1004.19 1004.32
1005.47 1005.19 1004.94 1004.69 1004.45 1004.21 1003.98 1003.78 1003.62 1003.50 1003.44 1003.41 1003.42 1003.42 1003.41 1003.37 1003.28 1003.14 1002.98 1002.79 1002.62 1002.48 1002.38 1002.33 1002.33 1002.37 1002.43 1002.49 1002.53 1002.55 1002.55 1002.54 1002.54 1002.56 1002.63 1002.75 1002.93 1003.16 1003.43 1003.70 1003.96 1004.18 1004.34
Thickness
5778 5777 5775 5774 5772 5771 5769 5767 5766 5765 5764 5763 5762 5761 5760 5759 5758 5757 5757 5756 5755 5753 5752 5751 5749 5748 5746 5744 5742 5740 5739 5737 5736 5735 5734 5733 5732 5731 5729 5728 5727 5726 5725
5780 5777 5775 5774 5772 5771 5769 5767 5766 5765 5764 5763 5763 5762 5761 5760 5758 5758 5757 5756 5755 5754 5752 5751 5750 5748 5746 5744 5742 5740 5738 5737 5736 5735 5733 5732 5731 5730 5729 5728 5727 5726 5725
5781 5779 5776 5774 5773 5772 5770 5768 5766 5765 5764 5764 5763 5763 5762 5761 5760 5759 5758 5756 5754 5753 5752 5751 5750 5747 5745 5743 5741 5739 5738 5737 5735 5734 5733 5732 5731 5730 5728 5727 5726 5725 5724
5782 5779 5777 5775 5775 5773 5771 5768 5766 5764 5763 5762 5761 5761 5761 5760 5759 5759 5758 5756 5754 5753 5752 5750 5749 5747 5745 5743 5741 5739 5737 5736 5735 5734 5732 5731 5730 5729 5727 5726 5725 5724 5723
5782 5780 5777 5776 5774 5772 5771 5769 5767 5764 5761 5761 5760 5760 5760 5759 5759 5759 5758 5757 5755 5754 5752 5750 5748 5746 5744 5742 5741 5739 5737 5735 5734 5733 5731 5730 5729 5728 5727 5726 5724 5723 5722
5782 5780 5778 5776 5774 5771 5770 5768 5766 5764 5762 5760 5760 5759 5759 5759 5759 5758 5758 5757 5755 5754 5751 5749 5747 5746 5744 5742 5740 5739 5736 5734 5733 5731 5730 5729 5728 5727 5726 5724 5722 5721 5720
5782 5780 5778 5775 5773 5771 5769 5768 5765 5762 5760 5760 5756 5753 5755 5757 5757 5757 5757 5755 5754 5753 5751 5749 5746 5744 5743 5741 5739 5738 5735 5733 5732 5730 5729 5727 5727 5725 5724 5722 5721 5720 5719
5782 5780 5778 5775 5773 5771 5768 5767 5764 5760 5759 5759 5754 5748 5744 5746 5752 5756 5755 5754 5752 5751 5749 5747 5745 5743 5742 5740 5739 5737 5735 5733 5731 5729 5727 5726 5725 5724 5722 5721 5719 5718 5717
5781 5780 5778 5776 5774 5771 5768 5767 5765 5762 5757 5758 5757 5750 5741 5737 5742 5748 5751 5751 5750 5748 5747 5745 5744 5742 5740 5739 5737 5736 5733 5731 5729 5727 5726 5725 5723 5722 5721 5719 5718 5717 5716
5781 5779 5778 5776 5774 5772 5769 5768 5767 5764 5760 5755 5755 5754 5752 5748 5740 5739 5744 5746 5746 5745 5744 5744 5743 5741 5739 5737 5736 5734 5732 5730 5728 5726 5725 5723 5722 5720 5719 5718 5717 5716 5714
5780 5779 5777 5776 5773 5771 5769 5767 5766 5764 5761 5757 5754 5752 5750 5748 5746 5738 5735 5738 5741 5742 5742 5742 5741 5739 5738 5735 5734 5732 5731 5729 5727 5725 5723 5722 5720 5719 5718 5716 5715 5714 5713
5777 5777 5776 5774 5773 5771 5769 5767 5765 5764 5761 5758 5755 5753 5749 5745 5742 5739 5735 5734 5734 5737 5739 5740 5738 5737 5736 5734 5732 5730 5729 5727 5725 5723 5721 5720 5719 5717 5717 5715 5714 5713 5711
5773 5775 5775 5773 5771 5770 5769 5767 5764 5762 5760 5757 5755 5752 5750 5747 5745 5742 5737 5733 5731 5733 5735 5735 5736 5735 5734 5732 5730 5729 5727 5726 5724 5723 5720 5719 5717 5716 5715 5714 5712 5711 5710
5773 5774 5773 5772 5771 5769 5768 5765 5763 5761 5759 5756 5754 5751 5749 5747 5745 5742 5738 5733 5728 5727 5729 5730 5733 5732 5731 5730 5729 5727 5726 5724 5723 5722 5720 5717 5716 5714 5713 5712 5710 5709 5708
5773 5772 5771 5770 5769 5767 5765 5763 5760 5758 5757 5754 5752 5749 5747 5745 5743 5741 5739 5735 5728 5721 5721 5725 5727 5729 5728 5727 5727 5725 5723 5722 5721 5720 5718 5716 5714 5712 5710 5709 5708 5706 5705
5771 5770 5768 5767 5766 5764 5762 5760 5758 5756 5753 5751 5749 5746 5744 5742 5740 5738 5736 5733 5730 5724 5719 5722 5724 5725 5725 5724 5723 5721 5720 5720 5718 5717 5714 5712 5711 5709 5707 5706 5705 5703 5702
5769 5767 5765 5764 5762 5761 5759 5757 5755 5753 5750 5748 5746 5743 5741 5739 5737 5735 5733 5730 5727 5724 5718 5719 5721 5722 5720 5719 5718 5717 5716 5715 5714 5713 5711 5709 5707 5706 5704 5703 5702 5700 5699
5766 5764 5762 5760 5759 5758 5756 5754 5751 5749 5747 5744 5742 5739 5737 5736 5733 5731 5728 5726 5724 5722 5718 5714 5715 5715 5715 5714 5713 5713 5712 5711 5710 5709 5708 5706 5704 5702 5701 5699 5699 5697 5696
5762 5761 5758 5756 5755 5754 5753 5751 5749 5746 5744 5742 5739 5736 5734 5732 5728 5726 5724 5722 5720 5720 5716 5712 5710 5710 5710 5709 5707 5707 5707 5705 5705 5704 5703 5702 5700 5699 5698 5697 5695 5694 5692
5758 5756 5755 5753 5752 5751 5749 5747 5745 5743 5741 5739 5737 5735 5732 5729 5725 5723 5721 5718 5717 5714 5711 5708 5705 5704 5703 5703 5701 5699 5698 5699 5699 5699 5698 5697 5696 5695 5694 5693 5692 5691 5689
5754 5752 5751 5750 5749 5748 5746 5744 5742 5740 5737 5734 5733 5731 5729 5727 5725 5722 5720 5716 5713 5709 5706 5703 5700 5698 5697 5696 5694 5694 5692 5692 5692 5692 5691 5691 5690 5689 5689 5689 5688 5687 5685
5749 5748 5746 5745 5744 5744 5744 5742 5739 5735 5732 5729 5727 5726 5725 5723 5722 5720 5718 5716 5712 5707 5702 5699 5696 5694 5693 5692 5691 5690 5687 5685 5683 5686 5684 5684 5684 5684 5684 5684 5684 5683 5682
5744 5743 5742 5740 5739 5739 5739 5738 5735 5731 5728 5725 5723 5722 5721 5720 5717 5715 5713 5711 5708 5707 5704 5699 5694 5692 5691 5690 5688 5686 5683 5681 5680 5682 5679 5677 5678 5677 5679 5680 5680 5679 5677
5740 5738 5737 5736 5735 5735 5735 5733 5731 5727 5724 5721 5719 5717 5715 5713 5712 5710 5707 5704 5702 5701 5700 5697 5694 5693 5692 5689 5686 5684 5681 5678 5677 5677 5675 5671 5671 5671 5674 5674 5674 5673 5671
5734 5733 5731 5730 5728 5729 5729 5728 5726 5722 5719 5716 5715 5713 5711 5708 5708 5705 5701 5697 5696 5696 5696 5695 5693 5690 5688 5687 5684 5679 5675 5671 5669 5669 5669 5666 5666 5665 5666 5666 5666 5665 5664
5728 5728 5726 5725 5724 5723 5723 5722 5720 5717 5713 5711 5709 5708 5707 5704 5702 5699 5695 5692 5689 5689 5689 5688 5686 5685 5683 5682 5680 5676 5672 5666 5663 5662 5663 5661 5660 5657 5656 5658 5658 5657 5656